4XHSC LLRS-LLRS

Flight info

Callsign 4XHSC
Flight time 0h 40m
Altitude 400
Route LSA ROUTES TAL SAHAR AIRFIELD
Aircraft EV97/L-V/N

Departure

Time 2026-04-28 12:03
Airport Rishon Lezion Airfield (LLRS)

Arrival

Time 2026-04-28 12:43
Airport Rishon Lezion Airfield (LLRS)
Time Latitude Longitude Altitude Speed Heading
2026-04-28 11:51 31.96913 34.75301 71 ft 0 kts
2026-04-28 11:52 31.96922 34.75326 69 ft 0 kts 88°
2026-04-28 11:53 31.96922 34.75325 69 ft 0 kts 88°
2026-04-28 11:55 31.96921 34.75340 71 ft 2 kts 178°
2026-04-28 11:56 31.96859 34.75333 71 ft 15 kts 180°
2026-04-28 11:56 31.96723 34.75334 71 ft 24 kts 181°
2026-04-28 11:56 31.96557 34.75335 68 ft 23 kts 181°
2026-04-28 11:56 31.96401 34.75335 71 ft 21 kts 180°
2026-04-28 11:57 31.96343 34.75340 68 ft 0 kts 145°
2026-04-28 11:58 31.96341 34.75359 69 ft 0 kts 17°
2026-04-28 11:58 31.96347 34.75359 71 ft 0 kts
2026-04-28 11:58 31.96483 34.75357 72 ft 44 kts 357°
2026-04-28 11:59 31.96884 34.75320 126 ft 64 kts 326°
2026-04-28 11:59 31.97143 34.74898 257 ft 66 kts 291°
2026-04-28 11:59 31.97125 34.74362 333 ft 85 kts 232°
2026-04-28 11:59 31.96494 34.74241 388 ft 99 kts 182°
2026-04-28 12:00 31.95808 34.74285 400 ft 100 kts 187°
2026-04-28 12:00 31.95127 34.74277 365 ft 95 kts 187°
2026-04-28 12:00 31.94503 34.74457 355 ft 92 kts 156°
2026-04-28 12:00 31.94003 34.74923 379 ft 91 kts 143°
2026-04-28 12:01 31.93678 34.75243 371 ft 91 kts 143°
2026-04-28 12:01 31.93209 34.75740 388 ft 88 kts 142°
2026-04-28 12:01 31.92624 34.76390 400 ft 88 kts 141°
2026-04-28 12:01 31.92200 34.76886 418 ft 86 kts 139°
2026-04-28 12:02 31.91962 34.77539 444 ft 92 kts 87°
2026-04-28 12:02 31.91987 34.78063 462 ft 98 kts 84°
2026-04-28 12:02 31.92038 34.78878 483 ft 104 kts 83°
2026-04-28 12:02 31.92071 34.79743 466 ft 105 kts 86°
2026-04-28 12:03 31.92100 34.80574 671 ft 98 kts 87°
2026-04-28 12:03 31.92145 34.81392 796 ft 104 kts 82°
2026-04-28 12:03 31.92181 34.82270 825 ft 110 kts 93°
2026-04-28 12:03 31.92046 34.83162 818 ft 112 kts 105°
2026-04-28 12:04 31.91851 34.84057 844 ft 113 kts 107°
2026-04-28 12:04 31.91611 34.84955 841 ft 115 kts 109°
2026-04-28 12:04 31.91351 34.85828 858 ft 116 kts 110°
2026-04-28 12:04 31.91089 34.86721 864 ft 114 kts 109°
2026-04-28 12:05 31.90916 34.87639 857 ft 116 kts 94°
2026-04-28 12:05 31.90811 34.88580 878 ft 116 kts 112°
2026-04-28 12:05 31.90267 34.89247 795 ft 113 kts 154°
2026-04-28 12:05 31.89583 34.89693 647 ft 110 kts 161°
2026-04-28 12:06 31.88907 34.90069 601 ft 105 kts 163°
2026-04-28 12:06 31.88249 34.90414 627 ft 104 kts 164°
2026-04-28 12:06 31.87582 34.90759 654 ft 106 kts 165°
2026-04-28 12:06 31.86898 34.91054 686 ft 106 kts 170°
2026-04-28 12:07 31.86193 34.91281 707 ft 103 kts 171°
2026-04-28 12:07 31.85651 34.91787 776 ft 105 kts 104°
2026-04-28 12:07 31.85510 34.92597 810 ft 100 kts 132°
2026-04-28 12:07 31.84997 34.93137 889 ft 100 kts 149°
2026-04-28 12:08 31.84394 34.93541 975 ft 100 kts 175°
2026-04-28 12:08 31.83733 34.93451 1046 ft 94 kts 210°
2026-04-28 12:08 31.83102 34.93163 1063 ft 100 kts 210°
2026-04-28 12:08 31.82496 34.92897 1075 ft 99 kts 209°
2026-04-28 12:09 31.81859 34.92583 1083 ft 99 kts 217°
2026-04-28 12:09 31.81246 34.92205 1086 ft 101 kts 219°
2026-04-28 12:09 31.80907 34.91983 1110 ft 97 kts 220°
2026-04-28 12:09 31.80342 34.91514 1002 ft 99 kts 227°
2026-04-28 12:10 31.79829 34.91008 987 ft 93 kts 231°
2026-04-28 12:10 31.79262 34.90646 973 ft 99 kts 198°
2026-04-28 12:10 31.78753 34.90311 908 ft 76 kts 279°
2026-04-28 12:10 31.79122 34.89879 769 ft 76 kts 291°
2026-04-28 12:11 31.79462 34.89404 708 ft 76 kts 316°
2026-04-28 12:11 31.80013 34.89438 696 ft 95 kts 29°
2026-04-28 12:11 31.80099 34.90147 778 ft 97 kts 120°
2026-04-28 12:11 31.79677 34.90820 769 ft 106 kts 133°
2026-04-28 12:12 31.79190 34.91477 789 ft 103 kts 142°
2026-04-28 12:12 31.78605 34.91594 780 ft 80 kts 218°
2026-04-28 12:12 31.78272 34.91139 715 ft 67 kts 260°
2026-04-28 12:12 31.78474 34.90745 595 ft 59 kts 313°
2026-04-28 12:13 31.78713 34.90387 475 ft 54 kts 308°
2026-04-28 12:13 31.78933 34.90066 388 ft 42 kts 305°
2026-04-28 12:13 31.79141 34.89775 453 ft 48 kts 305°
2026-04-28 12:13 31.79381 34.89497 525 ft 54 kts 330°
2026-04-28 12:14 31.79793 34.89569 602 ft 66 kts 15°
2026-04-28 12:14 31.80002 34.90100 684 ft 91 kts 110°
2026-04-28 12:14 31.79650 34.90820 697 ft 107 kts 125°
2026-04-28 12:14 31.79190 34.91515 722 ft 109 kts 142°
2026-04-28 12:15 31.78593 34.91638 734 ft 78 kts 221°
2026-04-28 12:15 31.78235 34.91185 662 ft 75 kts 251°
2026-04-28 12:15 31.78392 34.90812 561 ft 57 kts 318°
2026-04-28 12:15 31.78648 34.90473 463 ft 55 kts 311°
2026-04-28 12:16 31.78885 34.90138 391 ft 47 kts 306°
2026-04-28 12:16 31.79092 34.89842 411 ft 51 kts 307°
2026-04-28 12:16 31.79316 34.89532 505 ft 49 kts 306°
2026-04-28 12:16 31.79692 34.89480 562 ft 66 kts 11°
2026-04-28 12:17 31.79993 34.89933 648 ft 86 kts 87°
2026-04-28 12:17 31.79703 34.90603 689 ft 97 kts 125°
2026-04-28 12:17 31.79312 34.91262 702 ft 102 kts 130°
2026-04-28 12:17 31.78786 34.91765 725 ft 95 kts 181°
2026-04-28 12:18 31.78306 34.91479 721 ft 73 kts 240°
2026-04-28 12:18 31.78231 34.90989 622 ft 62 kts 316°
2026-04-28 12:18 31.78530 34.90643 519 ft 59 kts 304°
2026-04-28 12:18 31.78780 34.90288 410 ft 53 kts 307°
2026-04-28 12:19 31.78981 34.89996 388 ft 49 kts 306°
2026-04-28 12:19 31.79206 34.89679 464 ft 50 kts 307°
2026-04-28 12:19 31.79516 34.89519 563 ft 58 kts 358°
2026-04-28 12:19 31.79889 34.89789 635 ft 73 kts 52°
2026-04-28 12:20 31.79740 34.90426 689 ft 94 kts 123°
2026-04-28 12:20 31.79352 34.91091 695 ft 99 kts 131°
2026-04-28 12:20 31.78881 34.91642 719 ft 92 kts 166°
2026-04-28 12:20 31.78353 34.91508 690 ft 74 kts 234°
2026-04-28 12:21 31.78224 34.91032 628 ft 64 kts 307°
2026-04-28 12:21 31.78514 34.90679 481 ft 54 kts 302°
2026-04-28 12:21 31.78734 34.90355 415 ft 51 kts 307°
2026-04-28 12:21 31.78941 34.90049 388 ft 45 kts 307°
2026-04-28 12:22 31.79221 34.89868 477 ft 52 kts 343°
2026-04-28 12:22 31.79587 34.89823 559 ft 54 kts 346°
2026-04-28 12:22 31.79996 34.89808 674 ft 62 kts 349°
2026-04-28 12:22 31.80449 34.89798 813 ft 72 kts
2026-04-28 12:23 31.80850 34.90279 948 ft 90 kts 41°
2026-04-28 12:23 31.81292 34.90845 1088 ft 104 kts 50°
2026-04-28 12:23 31.81587 34.91647 1274 ft 107 kts 63°
2026-04-28 12:23 31.81992 34.92333 1436 ft 98 kts 28°
2026-04-28 12:24 31.82595 34.92528 1594 ft 88 kts 359°
2026-04-28 12:24 31.83183 34.92619 1883 ft 89 kts 12°
2026-04-28 12:24 31.83590 34.93255 1995 ft 101 kts 59°
2026-04-28 12:24 31.83899 34.93962 2010 ft 95 kts 55°
2026-04-28 12:25 31.84200 34.94619 2048 ft 81 kts 54°
2026-04-28 12:25 31.84417 34.95069 2169 ft 55 kts 51°
2026-04-28 12:25 31.84823 34.95637 1999 ft 96 kts 38°
2026-04-28 12:25 31.85355 34.95800 1976 ft 78 kts 322°
2026-04-28 12:26 31.85434 34.95307 1927 ft 66 kts 230°
2026-04-28 12:26 31.85128 34.95730 1658 ft 116 kts 100°
2026-04-28 12:26 31.84595 34.96211 1706 ft 98 kts 208°
2026-04-28 12:26 31.84287 34.95617 1720 ft 86 kts 261°
2026-04-28 12:27 31.84156 34.94934 1737 ft 82 kts 266°
2026-04-28 12:27 31.84392 34.94705 1832 ft 58 kts 38°
2026-04-28 12:27 31.84725 34.95410 1480 ft 102 kts 30°
2026-04-28 12:27 31.85233 34.95244 1493 ft 80 kts 310°
2026-04-28 12:28 31.85580 34.94755 1570 ft 75 kts 308°
2026-04-28 12:28 31.85622 34.94170 1703 ft 91 kts 240°
2026-04-28 12:28 31.85009 34.93989 1914 ft 88 kts 185°
2026-04-28 12:28 31.84484 34.94247 1790 ft 92 kts 126°
2026-04-28 12:29 31.84235 34.95730 923 ft 96 kts 165°
2026-04-28 12:29 31.83653 34.95860 872 ft 76 kts 192°
2026-04-28 12:29 31.83350 34.95555 1057 ft 57 kts 281°
2026-04-28 12:30 31.83662 34.95318 1205 ft 60 kts 334°
2026-04-28 12:30 31.84042 34.95109 1342 ft 64 kts 327°
2026-04-28 12:30 31.84416 34.94842 1536 ft 63 kts 323°
2026-04-28 12:30 31.84847 34.94916 1339 ft 80 kts 40°
2026-04-28 12:31 31.84824 34.95586 1117 ft 88 kts 134°
2026-04-28 12:31 31.84721 34.96286 896 ft 81 kts 41°
2026-04-28 12:31 31.85084 34.96267 685 ft 51 kts 321°
2026-04-28 12:31 31.85395 34.96053 524 ft 56 kts 323°
2026-04-28 12:32 31.85530 34.95680 621 ft 50 kts 274°
2026-04-28 12:32 31.85520 34.95287 737 ft 49 kts 274°
2026-04-28 12:32 31.85719 34.94970 963 ft 58 kts 324°
2026-04-28 12:32 31.86092 34.94735 1185 ft 65 kts 323°
2026-04-28 12:33 31.86522 34.94422 1253 ft 78 kts 321°
2026-04-28 12:33 31.86973 34.94026 1289 ft 84 kts 318°
2026-04-28 12:33 31.87442 34.93628 1307 ft 86 kts 319°
2026-04-28 12:33 31.87869 34.93230 1270 ft 89 kts 317°
2026-04-28 12:34 31.88316 34.92718 1235 ft 87 kts 309°
2026-04-28 12:34 31.88705 34.92182 1212 ft 88 kts 308°
2026-04-28 12:34 31.89107 34.91632 1221 ft 90 kts 309°
2026-04-28 12:34 31.89521 34.91085 1224 ft 90 kts 311°
2026-04-28 12:35 31.89951 34.90547 1234 ft 89 kts 312°
2026-04-28 12:35 31.90374 34.90010 1212 ft 90 kts 312°
2026-04-28 12:35 31.90776 34.89443 1141 ft 87 kts 307°
2026-04-28 12:35 31.91061 34.88850 1165 ft 84 kts 290°
2026-04-28 12:36 31.91228 34.88201 1179 ft 83 kts 287°
2026-04-28 12:36 31.91398 34.87562 1187 ft 81 kts 289°
2026-04-28 12:36 31.91593 34.86931 1213 ft 84 kts 294°
2026-04-28 12:36 31.91797 34.86270 1237 ft 87 kts 286°
2026-04-28 12:37 31.91921 34.85558 1237 ft 89 kts 284°
2026-04-28 12:37 31.92050 34.84851 1235 ft 87 kts 285°
2026-04-28 12:37 31.92245 34.84177 1165 ft 86 kts 295°
2026-04-28 12:37 31.92486 34.83592 969 ft 74 kts 298°
2026-04-28 12:38 31.92730 34.83069 679 ft 74 kts 296°
2026-04-28 12:38 31.92968 34.82430 615 ft 88 kts 294°
2026-04-28 12:38 31.93321 34.81882 536 ft 85 kts 326°
2026-04-28 12:38 31.93841 34.81543 482 ft 85 kts 328°
2026-04-28 12:39 31.94357 34.81210 459 ft 83 kts 316°
2026-04-28 12:39 31.94650 34.80663 453 ft 79 kts 290°
2026-04-28 12:39 31.94810 34.80072 460 ft 74 kts 281°
2026-04-28 12:39 31.94863 34.79470 483 ft 76 kts 279°
2026-04-28 12:40 31.94965 34.78830 474 ft 81 kts 283°
2026-04-28 12:40 31.95103 34.78181 476 ft 82 kts 284°
2026-04-28 12:40 31.95274 34.77542 505 ft 84 kts 296°
2026-04-28 12:40 31.95669 34.77022 490 ft 88 kts 314°
2026-04-28 12:41 31.96084 34.76559 409 ft 76 kts 308°
2026-04-28 12:41 31.96385 34.76117 387 ft 67 kts 301°
2026-04-28 12:41 31.96634 34.75631 382 ft 72 kts 297°
2026-04-28 12:41 31.96829 34.75087 371 ft 70 kts 289°
2026-04-28 12:42 31.96756 34.74560 358 ft 80 kts 223°
2026-04-28 12:42 31.96167 34.74469 374 ft 84 kts 197°
2026-04-28 12:42 31.95611 34.74363 373 ft 83 kts 192°
2026-04-28 12:42 31.95198 34.74846 370 ft 96 kts 92°
2026-04-28 12:43 31.95451 34.75410 339 ft 66 kts 349°
2026-04-28 12:43 31.95899 34.75358 251 ft 67 kts 353°
2026-04-28 12:43 31.96358 34.75360 75 ft 63 kts 344°
2026-04-28 12:43 31.96680 34.75353 70 ft 34 kts 13°
2026-04-28 12:44 31.96853 34.75353 66 ft 13 kts 17°
2026-04-28 12:44 31.96919 34.75383 70 ft 5 kts
2026-04-28 12:44 31.96933 34.75382 67 ft 0 kts 349°